Weather in Gharyan

Libya     32°09′55″N   13°01′27″E
temp.,
°C
wind,
m/s
gust,
m/s
humid.,
%
clouds,
%
prec.,
mm/h
press.,
hPa
HPBL,
m
15 april, thu
thu1523:00+17ese3330100 0.0 101876
02:00+16sse333197 0.0 101726
05:00+15sse3331100 0.0 101618
08:00+17sse342673 0.0 1015122
11:00+25sse66114 0.0 1014863
14:00+28sse7610100 0.0 10121372
17:00+28sse8812100 0.0 10091446
20:00+24se9141470 0.0 1008421
16 april, fri
fri1623:00+19se112237100 0.0 1006470
02:00+20sse13263587 0.0 1003369
05:00+21s122230100 0.0 1002290
08:00+23s101825100 0.0 1002287
11:00+32sw1119999 0.0 10011778
14:00+37wsw1528519 0.0 9994890
17:00+35wsw151964 0.0 9983739
20:00+19nw45605 0.0 1004342
17 april, sat
sat1723:00+17w467197 0.0 1006386
02:00+15wnw588244 0.0 1006436
05:00+14w35875 0.0 1006174
08:00+15wsw12815 0.0 1009250
11:00+20wnw33561 0.0 1009755
14:00+25nw563616 0.0 10071393
17:00+23n86494 0.0 1007778
20:00+17nne54672 0.0 1010483
18 april, sun
sun1823:00+15nne548095 0.0 1014591
02:00+14nnw4582100 0.2 1014583
05:00+13n228597 0.2 1014454
08:00+15sse2371100 0.2 1014460
11:00+20wsw45322 0.0 10141502
14:00+25w9141761 0.0 10123435
17:00+24wnw16181315 0.0 10113793
20:00+14n811470 0.0 1016628
19 april, mon
mon1923:00+12nw610680 0.0 1020827
02:00+11wnw5107229 0.0 1020492
05:00+10wnw597340 0.0 1020321
08:00+11w5868100 0.0 1021641
11:00+15wnw694311 0.0 10211278
14:00+19wnw78278 0.0 10201936
17:00+19nw66231 0.0 10181910
20:00+14nne45431 0.0 1019177